Theta_e
333 331 329 330 332 336 338 340 344 342 349 350 347 346 346 343 346 349 342 343 345 345 344 343 342 340 340 342 343 344 344 348 346 348 344 349 350 349 349 350 351 351 352 354
325 327 330 331 334 338 338 338 338 339 341 347 347 348 346 347 347 349 344 344 344 345 344 343 342 342 339 341 343 344 346 348 349 349 346 346 349 350 351 351 350 349 349 352
324 327 331 332 331 332 333 334 338 337 337 339 347 349 349 347 351 348 346 344 344 344 345 343 344 343 341 342 343 344 347 348 348 347 347 350 351 353 353 351 344 337 347 351
324 326 328 328 330 330 330 333 336 336 334 335 339 349 351 346 350 350 349 345 344 344 345 344 345 345 343 344 345 347 343 342 345 345 348 351 352 354 351 344 339 347 348 347
323 325 325 326 327 326 326 332 334 335 332 336 340 344 343 347 350 351 348 349 345 344 344 345 345 347 346 346 347 348 344 343 343 343 349 350 351 349 353 353 351 350 350 349
323 327 325 326 328 328 328 329 330 330 331 341 340 341 346 347 349 351 349 349 347 346 345 345 345 345 348 348 348 349 348 344 343 343 344 351 353 350 354 354 353 352 354 354
324 324 325 327 327 327 326 327 328 334 348 349 338 339 340 341 344 349 350 349 350 347 346 346 346 345 347 350 349 349 349 348 344 343 344 344 348 349 351 353 355 356 353 353
323 324 325 326 324 324 325 325 325 335 349 348 339 341 340 340 342 349 350 350 350 349 347 347 346 346 345 350 349 349 348 348 347 343 343 344 344 346 347 349 357 356 345 346
322 324 327 327 327 325 325 325 327 328 328 331 339 339 341 340 340 344 348 348 350 351 349 348 347 346 346 347 348 348 348 347 347 347 344 343 343 343 343 344 348 355 355 354
325 325 326 329 329 328 325 325 321 323 334 338 341 344 349 345 343 343 346 347 349 349 349 349 347 346 346 346 346 347 346 346 347 347 346 344 342 342 342 343 344 352 355 357
327 325 326 327 328 326 325 323 323 321 325 329 343 341 343 341 344 344 343 347 347 349 349 351 348 349 347 346 346 347 346 346 347 348 347 346 343 342 342 342 343 349 356 357
331 325 324 326 326 327 326 325 322 322 323 326 332 337 338 341 345 348 347 347 347 348 348 350 350 350 349 347 345 347 346 345 346 347 347 348 346 342 342 342 342 348 355 354
332 332 331 328 324 325 326 326 325 322 322 323 331 342 338 340 343 349 350 348 347 347 348 349 350 349 351 349 348 347 346 346 346 347 348 348 349 346 342 341 342 346 354 354
332 329 329 329 329 329 334 332 326 326 323 325 328 340 341 343 343 344 346 349 348 349 349 350 350 350 349 350 350 349 347 347 346 347 347 347 348 348 344 343 343 348 352 355
329 329 329 328 330 333 335 334 335 326 325 326 334 341 340 343 345 348 351 350 348 348 349 348 348 351 350 349 349 349 349 348 347 347 347 347 348 349 349 348 348 352 357 355
331 333 334 336 335 335 335 335 335 338 339 338 340 339 337 343 349 351 352 351 351 353 354 354 353 348 351 350 349 350 350 349 348 348 348 348 349 350 352 354 356 360 361 360
331 332 333 334 333 334 336 334 335 337 341 343 339 337 341 345 349 350 351 350 350 353 355 356 355 354 349 349 351 351 350 351 350 351 350 350 352 353 356 358 359 361 361 357
328 332 332 334 335 340 335 333 336 338 343 342 337 338 344 344 345 348 348 350 350 350 353 356 357 356 353 355 353 351 351 352 354 357 355 354 356 357 358 360 361 360 359 356
331 334 334 336 337 337 336 336 336 335 340 340 344 341 339 344 344 345 346 346 348 349 352 359 361 362 357 356 353 353 355 355 358 358 359 361 359 361 361 362 362 359 358 357
332 332 333 336 339 340 337 334 335 334 343 337 340 340 340 338 345 337 340 345 347 348 349 353 357 360 359 363 361 361 360 363 363 363 362 361 363 363 363 364 362 360 357 353
336 335 336 335 335 341 336 337 337 335 341 338 335 334 333 337 336 334 333 341 347 346 349 348 346 349 363 364 363 363 362 362 363 363 364 364 364 363 363 364 363 362 355 347
337 339 335 335 337 341 333 338 339 339 333 337 333 332 332 331 332 341 338 343 348 349 349 350 350 350 348 361 364 363 365 365 365 366 366 364 363 362 362 362 361 356 351 343
338 338 342 339 340 333 335 334 334 333 332 331 336 334 332 332 336 342 341 342 341 343 349 350 349 353 341 353 362 365 364 364 364 365 366 363 361 359 359 357 352 349 344 340
333 332 333 335 338 334 332 335 334 331 332 333 335 335 336 336 335 336 336 337 339 341 349 349 350 348 339 342 349 353 357 358 361 359 360 356 356 353 350 349 349 348 345 340
334 331 331 333 334 331 333 332 335 332 330 330 335 333 333 334 333 334 335 336 336 344 348 347 348 344 341 342 339 350 353 359 357 354 353 351 348 346 345 345 344 339 339 340
330 333 334 336 335 335 331 330 333 332 331 335 335 332 331 331 333 332 333 336 337 338 350 349 348 344 339 337 340 346 351 351 353 352 350 349 349 348 347 342 339 340 340 339
Wind_Speed
17 3 8 14 11 13 11 9 13 5 17 11 17 10 10 15 12 19 28 32 29 26 34 26 27 27 28 27 24 21 22 15 16 11 11 17 14 9 5 7 6 8 7 11
7 8 15 16 5 12 9 11 4 5 9 13 13 8 12 10 15 25 31 30 32 25 35 29 30 31 32 30 25 21 22 21 17 12 10 14 14 11 12 9 6 6 6 6
8 13 14 13 10 10 6 8 1 1 3 1 9 8 8 11 24 33 33 39 37 32 34 32 32 35 34 32 27 22 25 23 19 15 13 13 9 11 14 9 3 8 6 6
9 17 12 12 7 6 8 10 5 7 7 4 5 3 4 4 13 17 26 36 38 36 32 36 35 37 37 34 29 22 23 20 19 18 16 16 17 14 6 4 8 8 3 2
12 9 9 9 6 9 10 10 7 3 4 8 4 5 7 7 8 13 21 34 39 40 36 41 35 36 39 37 33 25 21 19 18 19 17 16 14 13 13 11 5 4 4 2
11 25 7 5 5 6 8 8 9 8 5 4 4 4 7 7 18 16 18 33 41 39 33 37 37 32 41 39 34 30 23 20 19 19 22 19 17 12 13 5 4 2 1 4
10 15 13 9 4 5 8 4 3 5 5 7 10 1 12 8 10 16 17 25 36 47 38 34 38 37 30 40 38 33 26 20 21 20 21 24 21 16 15 9 8 7 5 8
5 10 13 12 10 9 7 4 5 3 5 7 8 3 7 8 13 24 29 27 32 41 43 35 39 38 36 38 38 35 30 25 22 23 20 22 24 22 16 18 16 14 8 10
4 10 10 7 6 9 8 5 9 3 6 3 4 1 7 9 9 14 21 22 32 36 42 38 39 39 40 37 37 36 31 28 27 25 24 21 22 25 23 18 18 19 13 9
9 5 8 5 4 3 6 4 6 4 1 1 4 5 3 1 9 10 12 21 23 33 38 40 39 35 37 39 38 39 34 32 29 28 24 24 22 22 21 21 21 19 19 16
4 1 10 7 1 5 4 4 4 2 3 2 3 5 3 18 5 9 10 27 25 27 21 36 38 31 34 38 35 39 37 33 31 29 25 23 24 23 23 25 24 23 21 21
8 1 4 8 12 7 9 8 8 5 9 4 4 5 11 19 4 16 16 24 25 25 25 28 33 38 36 37 35 34 37 34 30 28 25 23 20 26 26 27 26 25 25 26
7 4 5 10 9 9 6 7 7 3 1 6 5 5 7 7 9 18 17 17 20 20 24 22 28 26 31 34 34 38 36 34 31 31 29 26 22 23 28 27 26 29 28 29
2 3 5 5 9 8 6 8 6 4 2 5 3 7 5 7 9 11 11 11 12 12 13 12 30 27 27 30 30 34 36 32 31 32 32 30 27 25 25 25 25 25 28 24
5 4 7 11 11 7 9 13 18 6 8 4 3 14 10 9 10 12 15 10 7 8 5 3 6 10 27 26 27 27 30 33 34 35 36 34 31 27 25 27 27 23 23 19
6 4 5 7 12 14 6 17 19 12 14 18 12 7 10 17 24 21 14 15 14 13 11 9 3 11 15 24 26 25 27 30 33 35 36 35 33 29 26 25 22 21 24 26
7 3 4 4 11 10 3 14 8 5 14 11 1 7 8 11 11 20 18 14 11 11 11 9 10 5 17 18 21 25 27 26 31 32 34 34 31 30 27 24 24 28 30 29
8 2 2 2 6 3 5 11 8 7 18 24 10 3 12 17 25 24 18 12 10 10 9 8 9 10 8 1 22 22 24 27 29 28 31 32 31 30 29 26 28 30 30 26
7 4 3 2 1 2 6 4 5 8 6 19 22 19 29 8 29 21 15 11 11 10 10 9 7 8 4 8 7 13 22 24 25 27 24 25 31 28 27 29 28 26 25 27
10 7 4 3 2 4 3 9 20 7 3 17 24 21 23 37 9 9 19 13 9 9 9 7 8 8 7 12 4 2 16 16 18 19 21 22 24 25 25 27 28 26 26 25
4 3 0 3 3 3 7 15 8 3 3 18 20 16 22 10 12 8 21 12 2 3 6 7 8 10 6 6 5 6 6 8 8 8 14 19 20 20 20 23 27 28 24 16
1 1 2 2 3 3 15 8 6 5 19 11 0 14 16 14 37 33 10 19 7 4 5 8 7 9 2 2 1 3 6 8 6 11 14 13 15 17 22 22 24 25 19 12
1 3 2 1 2 7 10 5 10 1 19 16 2 15 12 13 21 24 25 5 3 2 5 3 2 6 2 2 3 5 6 9 11 11 15 13 16 18 22 22 21 17 10 12
3 4 2 3 4 2 3 5 4 11 13 22 10 10 9 15 1 7 9 11 10 2 5 5 3 7 5 2 0 1 2 3 5 13 14 15 16 16 13 12 13 14 17 16
6 8 6 4 6 2 7 12 10 14 12 12 15 12 18 10 7 7 8 13 12 6 7 3 2 6 6 6 3 5 5 9 10 10 10 10 9 6 7 11 15 14 13 14
9 5 2 2 7 7 8 15 17 14 16 33 35 20 12 14 10 12 13 6 12 3 9 9 4 8 6 8 9 3 4 7 9 9 8 7 8 7 9 9 11 13 16 14
Wind_Direction
256 243 250 253 218 222 269 256 230 115 166 115 135 165 235 241 256 240 181 183 193 191 174 173 177 182 181 180 181 182 184 198 204 197 193 172 168 172 197 229 230 211 230 283
300 252 250 267 206 218 241 255 288 283 96 116 157 190 213 220 233 221 184 182 185 192 172 173 179 183 184 185 191 193 189 194 206 214 201 186 170 191 229 227 247 231 245 252
236 259 270 266 257 289 278 238 300 77 303 116 165 147 218 219 206 176 190 183 182 188 175 175 181 184 184 187 193 199 194 200 213 220 186 174 210 226 224 214 196 137 206 258
235 255 271 293 295 316 312 305 32 21 6 277 139 221 227 195 202 174 190 175 184 185 184 177 182 185 187 194 197 194 194 195 203 208 186 200 217 216 196 156 229 133 141 284
259 272 274 277 276 288 264 296 335 342 292 46 347 81 266 166 225 195 174 178 183 186 189 181 182 188 192 193 194 193 192 191 192 203 203 202 216 217 220 260 192 63 78 78
270 288 274 272 330 337 313 302 346 329 26 341 358 80 284 181 198 188 191 181 181 181 189 184 185 187 192 196 195 191 192 201 205 209 211 212 218 226 237 202 188 61 106 253
271 262 273 256 234 292 291 312 322 39 67 253 281 67 230 271 170 179 182 189 169 176 176 184 185 186 186 193 195 194 199 203 209 215 215 214 223 220 208 213 196 216 234 272
249 290 240 241 193 195 262 188 169 204 192 241 345 251 270 144 96 166 170 181 166 168 174 179 188 193 190 193 199 201 203 207 210 216 218 221 220 223 217 212 204 216 200 228
284 283 311 226 176 160 274 304 237 244 283 70 228 40 38 107 101 101 140 155 162 161 178 175 189 195 193 197 200 208 207 215 217 220 224 222 222 222 224 220 219 233 252 239
240 265 286 306 118 220 168 257 8 347 235 316 331 59 63 124 137 150 149 156 158 176 173 180 180 190 199 201 207 210 215 215 219 220 226 227 229 225 223 221 220 215 232 237
292 102 298 3 279 186 311 277 278 187 158 185 119 282 58 333 182 146 158 158 161 169 171 178 180 187 196 204 206 210 213 216 220 222 223 229 231 227 226 229 226 219 227 235
357 59 317 274 289 229 215 226 196 134 278 222 161 273 189 204 105 85 114 158 163 169 175 177 177 189 194 196 199 208 212 217 220 224 228 234 236 231 230 232 232 230 224 231
0 338 348 319 326 313 250 233 222 238 182 250 139 215 147 95 59 87 102 106 142 154 167 179 182 186 189 197 200 203 213 219 223 224 229 231 237 237 235 236 234 231 232 234
60 271 233 233 258 311 333 347 220 209 301 276 225 149 115 93 87 67 71 90 117 120 136 134 189 188 192 196 203 206 210 219 225 226 229 235 240 242 238 237 237 235 235 236
134 256 293 286 313 345 337 338 9 250 237 204 247 127 129 117 111 92 81 85 122 135 150 231 177 188 200 199 204 209 213 217 225 228 229 236 238 241 243 240 241 242 229 225
347 326 328 321 347 348 345 21 4 5 7 6 142 95 103 115 115 97 82 79 58 59 61 70 68 222 190 209 211 214 219 222 226 229 233 232 234 235 241 242 236 231 226 219
316 326 24 311 326 6 8 353 352 332 38 347 140 244 138 117 126 127 113 96 79 54 46 44 39 34 222 215 214 225 228 228 228 230 231 230 230 234 233 232 224 224 224 240
282 17 98 297 19 26 299 347 30 24 33 15 17 66 138 135 122 122 118 118 101 90 63 46 35 30 50 133 236 241 234 229 226 224 224 226 227 226 228 227 220 224 233 249
87 84 9 9 110 321 324 5 12 22 21 45 40 21 9 19 106 89 107 102 110 92 75 46 39 47 349 352 242 268 235 224 218 222 220 218 224 223 223 222 223 234 230 227
91 91 101 8 341 220 322 350 346 320 42 49 64 28 18 22 42 335 12 54 73 85 98 61 42 26 4 38 58 337 198 202 207 212 220 228 223 224 223 220 225 233 231 223
17 11 338 116 236 67 315 330 333 61 10 333 59 42 27 38 341 326 52 36 47 109 108 76 58 56 76 58 86 126 181 186 201 221 217 214 215 220 223 224 221 228 220 232
119 25 268 251 175 169 345 355 78 257 318 298 288 91 16 347 13 300 181 238 212 164 99 55 25 17 28 200 238 203 205 199 226 220 215 212 213 216 218 220 219 216 217 254
210 205 223 308 180 227 296 183 185 7 352 311 141 112 119 123 235 209 273 247 257 280 149 118 325 348 29 256 267 224 214 218 233 202 201 200 206 213 216 218 212 210 221 242
261 135 219 34 230 245 357 4 266 11 339 302 308 281 221 220 143 338 0 359 12 16 101 129 143 294 340 353 352 127 225 251 157 168 180 186 193 197 215 213 217 231 245 219
189 144 187 225 280 306 111 102 163 66 39 277 271 322 316 328 345 342 347 345 338 356 183 185 272 278 285 338 36 89 117 148 160 160 174 186 194 220 221 226 237 241 220 219
176 198 139 300 217 194 249 173 163 191 261 262 257 261 277 298 301 317 333 320 322 309 199 186 222 267 298 330 343 57 115 141 159 155 167 203 217 230 261 259 210 210 203 215